FW3916 Weather Reports


time (UTC)temp
C
wind
direction
speed
KPH
gust
KPH
rain 1hr
cm
rain 24hr
cm
rain mn
cm
humidity
%
barometer
mb
20260504035547 14 0 1.6 6.4 0.00 0.00 0.00 51 1011.2
20260504035049 14 0 0.0 6.4 0.00 0.00 0.00 51 1011.2
20260504034610 14 265 1.6 6.4 0.00 0.00 0.00 51 1011.3
20260504034042 14 0 1.6 8.0 0.00 0.00 0.00 51 1011.3
20260504033545 14 0 1.6 8.0 0.00 0.00 0.00 51 1011.4
20260504033100 14 280 1.6 8.0 0.00 0.00 0.00 51 1011.3
20260504032543 14 0 1.6 4.8 0.00 0.00 0.00 51 1011.5
20260504032048 14 229 1.6 6.4 0.00 0.00 0.00 50 1011.5
20260504031547 14 146 1.6 6.4 0.00 0.00 0.00 50 1011.6
20260504031043 14 84 1.6 9.7 0.00 0.00 0.00 50 1011.7
20260504030543 14 264 1.6 9.7 0.00 0.00 0.00 50 1011.6
20260504030051 14 115 3.2 8.0 0.00 0.00 0.00 49 1011.7
20260504025544 14 260 1.6 9.7 0.00 0.00 0.00 49 1011.7
20260504025047 14 107 1.6 12.9 0.00 0.00 0.00 49 1011.8
20260504024554 14 191 3.2 12.9 0.00 0.00 0.00 49 1011.7
20260504024046 14 255 1.6 9.7 0.00 0.00 0.00 49 1011.7
20260504023543 14 75 1.6 9.7 0.00 0.00 0.00 49 1011.5
20260504023055 14 324 1.6 6.4 0.00 0.00 0.00 50 1011.6
20260504022547 14 97 1.6 8.0 0.00 0.00 0.00 49 1011.4
20260504022049 14 113 1.6 8.0 0.00 0.00 0.00 49 1011.4
20260504021552 14 219 3.2 8.0 0.00 0.00 0.00 49 1011.5
20260504021045 15 207 0.0 6.4 0.00 0.00 0.00 49 1011.5
20260504020545 15 211 0.0 6.4 0.00 0.00 0.00 48 1011.5
20260504020103 15 110 3.2 8.0 0.00 0.00 0.00 48 1011.5
20260504015545 15 120 1.6 8.0 0.00 0.00 0.00 48 1011.5
20260504015045 15 242 1.6 8.0 0.00 0.00 0.00 48 1011.4
20260504014553 15 89 1.6 6.4 0.00 0.00 0.00 47 1011.5
20260504014043 15 258 1.6 6.4 0.00 0.00 0.00 47 1011.5
20260504013543 15 170 0.0 12.9 0.00 0.00 0.00 47 1011.5
20260504013053 15 0 3.2 12.9 0.00 0.00 0.00 47 1011.4
20260504012545 15 286 1.6 9.7 0.00 0.00 0.00 47 1011.4
20260504012042 15 288 1.6 9.7 0.00 0.00 0.00 47 1011.4
20260504011548 15 262 1.6 11.3 0.00 0.00 0.00 46 1011.5
20260504011044 15 0 1.6 11.3 0.00 0.00 0.00 46 1011.3
20260504010544 15 143 3.2 11.3 0.00 0.00 0.00 46 1011.3
20260504010047 15 209 1.6 16.1 0.00 0.00 0.00 46 1011.2
20260504005543 15 154 3.2 16.1 0.00 0.00 0.00 46 1011.2
20260504005045 15 204 3.2 12.9 0.00 0.00 0.00 47 1011.0
20260504004551 15 198 4.8 12.9 0.00 0.00 0.00 47 1011.1
20260504004045 16 169 3.2 12.9 0.00 0.00 0.00 47 1011.2
20260504003544 16 255 3.2 12.9 0.00 0.00 0.00 46 1011.4
20260504003051 16 209 3.2 11.3 0.00 0.00 0.00 44 1011.7
20260504002545 16 0 3.2 9.7 0.00 0.00 0.00 43 1012.2
20260504002045 16 245 1.6 9.7 0.00 0.00 0.00 42 1012.4
20260504001559 16 254 1.6 9.7 0.00 0.00 0.00 43 1012.3
20260504001042 16 147 1.6 9.7 0.00 0.00 0.00 42 1012.4
20260504000545 16 243 3.2 9.7 0.00 0.00 0.00 42 1012.2
20260504000056 16 308 1.6 6.4 0.00 0.00 0.00 42 1012.2
20260503235543 16 240 1.6 9.7 0.00 0.00 0.00 41 1012.1
20260503235043 16 84 3.2 9.7 0.00 0.00 0.00 41 1012.2
20260503234552 16 207 1.6 9.7 0.00 0.00 0.00 40 1012.4
20260503234047 16 231 1.6 9.7 0.00 0.00 0.00 41 1012.6
20260503233545 16 331 3.2 9.7 0.00 0.00 0.00 41 1012.8
20260503233053 16 0 1.6 9.7 0.00 0.00 0.00 40 1012.7
20260503232542 16 133 3.2 9.7 0.00 0.00 0.00 40 1012.6
20260503232042 16 238 1.6 12.9 0.00 0.00 0.00 41 1012.2
20260503231549 16 230 3.2 12.9 0.00 0.00 0.00 41 1011.9
20260503231042 16 273 3.2 17.7 0.00 0.00 0.00 41 1011.9
20260503230542 16 301 3.2 20.9 0.00 0.00 0.00 41 1011.9
20260503225545 16 193 4.8 16.1 0.00 0.00 0.00 40 1012.0
20260503225041 17 261 3.2 12.9 0.00 0.00 0.00 40 1012.1
20260503224559 17 240 1.6 12.9 0.00 0.00 0.00 41 1012.1
20260503224042 17 268 1.6 14.5 0.00 0.00 0.00 39 1012.2
20260503223543 17 281 3.2 14.5 0.00 0.00 0.00 39 1012.3
20260503223048 17 132 3.2 14.5 0.00 0.00 0.00 39 1012.2
20260503222545 17 200 3.2 17.7 0.00 0.00 0.00 39 1012.3
20260503222043 17 275 4.8 17.7 0.00 0.00 0.00 38 1012.3
20260503221552 17 81 4.8 17.7 0.00 0.00 0.00 39 1012.2
20260503221042 17 259 8.0 17.7 0.00 0.00 0.00 38 1012.3
20260503220543 17 264 8.0 17.7 0.00 0.00 0.00 38 1012.5
20260503220055 17 209 4.8 16.1 0.00 0.00 0.00 37 1012.5
20260503215541 17 223 3.2 16.1 0.00 0.00 0.00 37 1012.5
20260503215042 17 255 4.8 19.3 0.00 0.00 0.00 38 1012.4
20260503214554 17 78 3.2 19.3 0.00 0.00 0.00 37 1012.4
20260503214044 17 277 6.4 19.3 0.00 0.00 0.00 38 1012.7
20260503213545 17 283 4.8 20.9 0.00 0.00 0.00 38 1012.8
20260503213101 17 85 4.8 25.7 0.00 0.00 0.00 37 1012.7
20260503212546 17 296 8.0 25.7 0.00 0.00 0.00 37 1013.0
20260503212042 17 83 6.4 17.7 0.00 0.00 0.00 38 1013.1
20260503211611 17 272 4.8 12.9 0.00 0.00 0.00 38 1012.9
20260503211042 17 79 4.8 12.9 0.00 0.00 0.00 38 1013.0
20260503210547 17 226 3.2 14.5 0.00 0.00 0.00 39 1013.5
20260503210053 17 91 3.2 14.5 0.00 0.00 0.00 37 1013.6
20260503205542 17 207 4.8 14.5 0.00 0.00 0.00 37 1013.5
20260503205043 17 27 3.2 14.5 0.00 0.00 0.00 38 1014.0
20260503204559 17 185 1.6 12.9 0.00 0.00 0.00 36 1014.4
20260503204042 17 183 1.6 16.1 0.00 0.00 0.00 38 1014.4
20260503203542 17 316 1.6 16.1 0.00 0.00 0.00 36 1014.8
20260503203056 17 278 3.2 16.1 0.00 0.00 0.00 35 1014.7
20260503202545 17 219 3.2 16.1 0.00 0.00 0.00 36 1015.0
20260503202043 18 276 4.8 14.5 0.00 0.00 0.00 35 1015.2
20260503201552 18 109 1.6 14.5 0.00 0.00 0.00 35 1015.0
20260503201046 18 1 1.6 16.1 0.00 0.00 0.00 36 1014.7
20260503200542 17 133 4.8 16.1 0.00 0.00 0.00 34 1014.7
20260503200106 18 197 4.8 14.5 0.00 0.00 0.00 33 1014.7
20260503195542 18 1 4.8 20.9 0.00 0.00 0.00 36 1014.6
20260503195043 17 226 4.8 20.9 0.00 0.00 0.00 34 1014.7
20260503194603 17 89 8.0 20.9 0.00 0.00 0.00 34 1014.7
20260503194044 17 254 6.4 17.7 0.00 0.00 0.00 35 1014.8
20260503193542 17 308 8.0 17.7 0.00 0.00 0.00 34 1015.1
20260503193104 17 98 4.8 20.9 0.00 0.00 0.00 35 1015.0
20260503192542 17 262 4.8 25.7 0.00 0.00 0.00 34 1015.0
20260503192045 17 164 8.0 25.7 0.00 0.00 0.00 35 1015.3
20260503191604 17 253 8.0 19.3 0.00 0.00 0.00 36 1015.1
20260503191045 17 136 8.0 19.3 0.00 0.00 0.00 34 1015.3
20260503190548 17 240 6.4 16.1 0.00 0.00 0.00 33 1015.3
20260503190056 17 139 8.0 16.1 0.00 0.00 0.00 38 1015.4
20260503185542 17 258 4.8 14.5 0.00 0.00 0.00 33 1015.5
20260503185044 17 213 3.2 11.3 0.00 0.00 0.00 35 1015.7
20260503184613 17 188 4.8 14.5 0.00 0.00 0.00 34 1015.8
20260503184043 17 350 4.8 17.7 0.00 0.00 0.00 38 1015.7
20260503183546 17 212 4.8 17.7 0.00 0.00 0.00 35 1015.9
20260503183055 17 203 3.2 16.1 0.00 0.00 0.00 36 1016.0
20260503182542 17 206 4.8 16.1 0.00 0.00 0.00 35 1016.5
20260503182045 17 215 4.8 14.5 0.00 0.00 0.00 35 1016.5
20260503181612 17 178 4.8 17.7 0.00 0.00 0.00 35 1016.7
20260503181045 16 199 4.8 17.7 0.00 0.00 0.00 37 1016.8
20260503180545 17 94 4.8 17.7 0.00 0.00 0.00 36 1016.8
20260503180115 16 280 4.8 17.7 0.00 0.00 0.00 37 1017.2
20260503175541 16 257 6.4 20.9 0.00 0.00 0.00 34 1017.3
20260503175042 16 265 6.4 20.9 0.00 0.00 0.00 36 1017.3
20260503174558 16 108 3.2 12.9 0.00 0.00 0.00 35 1017.4
20260503174045 16 208 4.8 12.9 0.00 0.00 0.00 35 1017.6
20260503173544 16 240 3.2 14.5 0.00 0.00 0.00 37 1017.6
20260503173102 16 236 3.2 20.9 0.00 0.00 0.00 35 1017.6
20260503172544 16 253 8.0 20.9 0.00 0.00 0.00 37 1017.5
20260503172042 16 260 4.8 24.1 0.00 0.00 0.00 36 1017.5
20260503171554 16 176 6.4 24.1 0.00 0.00 0.00 36 1017.5
20260503171042 16 270 6.4 19.3 0.00 0.00 0.00 35 1017.8
20260503170543 16 98 3.2 17.7 0.00 0.00 0.00 36 1017.6
20260503150544 13 230 8.0 17.7 0.00 0.00 0.00 36 1019.2
20260503150106 13 189 4.8 17.7 0.00 0.00 0.00 37 1019.3
20260503131041 7 176 1.6 11.3 0.00 0.00 0.00 63 1019.5
20260503130541 6 234 3.2 11.3 0.00 0.00 0.00 68 1019.6
20260503110543 0 0 0.0 0.0 0.00 0.00 0.00 95 1019.0
20260503081551 0 0 0.0 0.0 0.00 0.00 0.00 94 1018.8
20260503081045 0 0 0.0 0.0 0.00 0.00 0.00 94 1018.7
20260503080545 0 0 0.0 0.0 0.00 0.00 0.00 94 1018.6
20260503072545 0 0 0.0 0.0 0.00 0.00 0.00 93 1018.5
20260503072043 0 0 0.0 0.0 0.00 0.00 0.00 93 1018.5
20260503071600 0 0 0.0 0.0 0.00 0.00 0.00 93 1018.6
20260503071047 1 0 0.0 0.0 0.00 0.00 0.00 93 1018.5
20260503070544 1 0 0.0 0.0 0.00 0.00 0.00 92 1018.7
20260503055040 1 0 0.0 0.0 0.00 0.00 0.00 90 1019.0
20260503054553 1 0 0.0 0.0 0.00 0.00 0.00 90 1019.1
20260503054043 1 0 0.0 0.0 0.00 0.00 0.00 90 1019.2
20260503053540 1 0 0.0 0.0 0.00 0.00 0.00 90 1019.2
20260503053049 1 0 0.0 0.0 0.00 0.00 0.00 90 1019.3
20260503052544 2 0 0.0 0.0 0.00 0.00 0.00 90 1019.3
20260503052043 2 0 0.0 0.0 0.00 0.00 0.00 89 1019.2
20260503051558 2 0 0.0 0.0 0.00 0.00 0.00 89 1019.3
20260503051043 2 0 0.0 0.0 0.00 0.00 0.00 89 1019.2
20260503050546 2 0 0.0 0.0 0.00 0.00 0.00 88 1019.1
20260503050056 2 0 0.0 0.0 0.00 0.00 0.00 88 1019.1
20260503045544 2 0 0.0 0.0 0.00 0.00 0.00 88 1019.1
20260503045041 2 0 0.0 0.0 0.00 0.00 0.00 88 1019.2
20260503044608 2 0 0.0 0.0 0.00 0.00 0.00 87 1019.3
20260503044041 2 0 0.0 0.0 0.00 0.00 0.00 87 1019.4
20260503043541 2 0 0.0 0.0 0.00 0.00 0.00 86 1019.2
20260503043057 2 0 0.0 0.0 0.00 0.00 0.00 85 1019.2
20260503042542 2 0 0.0 0.0 0.00 0.00 0.00 85 1019.2
20260503042044 2 0 0.0 1.6 0.00 0.00 0.00 85 1019.1
20260503041554 2 0 0.0 1.6 0.00 0.00 0.00 84 1019.1
20260503041043 3 0 0.0 1.6 0.00 0.00 0.00 84 1019.0
20260503040543 3 0 0.0 0.0 0.00 0.00 0.00 83 1019.2
20260503040100 3 0 0.0 0.0 0.00 0.00 0.00 82 1019.1